Time,TemperatureF,DewpointF,PressureIn,WindDirection,WindDirectionDegrees,WindSpeedMPH,WindSpeedGustMPH,Humidity,HourlyPrecipIn,Conditions,Clouds,dailyrainin,SoftwareType,DateUTC
2013-02-10 05:00:00,35.0,25.9,30.09,East,90,0.0,4.0,69,0.00,,,-99.99,Weather View 32 v60,2013-02-10 10:00:00,
2013-02-10 06:20:00,36.0,27.5,30.08,East,90,3.0,4.0,71,0.00,,,-99.99,Weather View 32 v60,2013-02-10 11:20:00,
2013-02-10 06:25:00,36.0,27.2,30.08,East,90,0.0,4.0,70,0.00,,,-99.99,Weather View 32 v60,2013-02-10 11:25:00,
2013-02-10 06:30:00,36.0,26.8,30.08,East,90,2.0,5.0,69,0.00,,,-99.99,Weather View 32 v60,2013-02-10 11:30:00,
2013-02-10 06:35:00,36.0,26.1,30.08,East,90,3.0,5.0,67,0.00,,,-99.99,Weather View 32 v60,2013-02-10 11:35:00,
2013-02-10 06:40:00,36.0,26.5,30.08,East,90,0.0,5.0,68,0.00,,,-99.99,Weather View 32 v60,2013-02-10 11:40:00,
2013-02-10 06:45:00,36.0,26.1,30.08,East,90,2.0,5.0,67,0.00,,,-99.99,Weather View 32 v60,2013-02-10 11:45:00,
2013-02-10 06:50:00,36.0,26.8,30.08,East,90,0.0,5.0,69,0.00,,,-99.99,Weather View 32 v60,2013-02-10 11:50:00,
2013-02-10 06:55:00,36.0,27.2,30.08,East,90,0.0,5.0,70,0.00,,,-99.99,Weather View 32 v60,2013-02-10 11:55:00,
2013-02-10 07:10:00,37.0,27.8,30.08,East,90,0.0,5.0,69,0.00,,,-99.99,Weather View 32 v60,2013-02-10 12:10:00,
2013-02-10 07:50:00,38.0,29.4,30.07,East,90,0.0,2.0,71,0.00,,,-99.99,Weather View 32 v60,2013-02-10 12:50:00,
2013-02-10 09:30:00,42.0,30.7,30.06,East,90,3.0,3.0,64,0.00,,,-99.99,Weather View 32 v60,2013-02-10 14:30:00,
2013-02-10 09:35:00,42.0,30.3,30.06,East,90,4.0,4.0,63,0.00,,,-99.99,Weather View 32 v60,2013-02-10 14:35:00,
2013-02-10 09:50:00,44.0,30.2,30.04,East,90,0.0,4.0,58,0.00,,,-99.99,Weather View 32 v60,2013-02-10 14:50:00,
2013-02-10 18:50:00,45.0,45.0,29.82,SW,225,5.0,8.0,100,0.00,,,-99.99,Weather View 32 v60,2013-02-10 23:50:00,
2013-02-10 18:55:00,45.0,45.0,29.82,SW,225,5.0,8.0,100,0.00,,,-99.99,Weather View 32 v60,2013-02-10 23:55:00,
2013-02-10 19:40:00,47.0,47.0,29.80,SW,225,16.0,16.0,100,0.00,,,-99.99,Weather View 32 v60,2013-02-11 00:40:00,
2013-02-10 19:55:00,47.0,47.0,29.78,SW,225,15.0,16.0,100,0.00,,,-99.99,Weather View 32 v60,2013-02-11 00:55:00,
2013-02-10 20:10:00,47.0,47.0,29.78,SW,225,12.0,16.0,100,0.00,,,-99.99,Weather View 32 v60,2013-02-11 01:10:00,
2013-02-10 20:15:00,47.0,47.0,29.78,SW,225,9.0,16.0,100,0.00,,,-99.99,Weather View 32 v60,2013-02-11 01:15:00,
2013-02-10 20:50:00,48.0,48.0,29.77,SW,225,12.0,16.0,100,0.00,,,-99.99,Weather View 32 v60,2013-02-11 01:50:00,
2013-02-10 21:05:00,48.0,48.0,29.77,SW,225,11.0,16.0,100,0.00,,,-99.99,Weather View 32 v60,2013-02-11 02:05:00,
2013-02-10 21:45:00,49.0,49.0,29.75,SW,225,8.0,12.0,100,0.00,,,-99.99,Weather View 32 v60,2013-02-11 02:45:00,
2013-02-10 21:55:00,50.0,50.0,29.76,SW,225,10.0,14.0,100,0.00,,,-99.99,Weather View 32 v60,2013-02-11 02:55:00,
2013-02-10 22:15:00,50.0,50.0,29.76,WSW,247,10.0,14.0,100,0.00,,,-99.99,Weather View 32 v60,2013-02-11 03:15:00,
2013-02-10 23:10:00,51.0,51.0,29.75,SW,225,4.0,10.0,100,0.00,,,-99.99,Weather View 32 v60,2013-02-11 04:10:00,